www.pogodaiklimat.ru

ПОГОДА в Лаграндже, OR

  • Прогноз погоды в Лаграндже
  • Монитор погоды в Лаграндже
  • Климат в Лаграндже

АРХИВ ПОГОДЫ в Лаграндже

Время (UTC), дата Ветер
(напр.,м/с)
 
Видим.   Явления Облачность Т
(С)
Тd
(С)
f
(%)
Тe
(С)
Тes
(С)
Комфортность

P
(гПа)

Po
(гПа)
Тmin
(С)
Tmax
(С)
R
(мм)
SD
(см)
15:56 18.03   16 км    ясно  +2.8  -2.8  67  +2  +6    1038.8  928.8         
16:56 18.03 СЗ  16 км    ясно  +5.0  -1.7  62  +3  +9    1038.7  928.8  -2.8  +5.0     
17:56 18.03 С  16 км    ясно  +6.1  -1.1  60  +4  +11    1038.4  928.5         
18:56 18.03   16 км    ясно  +8.3  -1.1  52  +8  +22  опасность
простуды 
1038.0  928.2         
19:56 18.03   16 км    ясно  +10.0  0.0  50  +10  +24  опасность
простуды 
1037.4  927.6         
20:56 18.03 СВ  16 км    ясно  +11.7  +1.7  50  +10  +17    1036.9  927.0         
21:56 18.03 СВ  16 км    ясно  +12.8  +1.1  45  +12  +18    1036.5  926.7         
22:56 18.03 С  16 км    ясно  +12.8  +1.1  45  +11  +15    1036.2  926.4  +5.0  +12.8     
23:56 18.03 С  16 км    ясно  +10.6  -0.6  46  +9  +11    1036.2  926.4         
00:56 19.03   16 км    ясно  +8.9  -1.1  49  +9  +9    1036.1  926.4         
01:56 19.03   16 км    ясно  +6.7  -1.7  55  +6  +6    1036.2  926.4         
02:56 19.03 СЗ  16 км    ясно  +2.2  -2.2  73  -1  -1    1036.7  926.7         
03:56 19.03   16 км    ясно  +2.8  -2.2  70  +2  +2    1037.1  927.3         
04:56 19.03 Ю  16 км    ясно  +0.6  -2.2  81  -2  -2    1037.5  927.6  +0.6  +12.8     
05:56 19.03 ЮВ  16 км    ясно  +0.6  -2.2  81  -3  -3    1037.7  927.9         
06:56 19.03 С  16 км    ясно  -1.7  -3.3  89  -7  -7    1037.8  927.9         
07:56 19.03   16 км    ясно  -2.8  -4.4  89  -4  -4    1037.8  927.9         
08:56 19.03 С  16 км    ясно  -1.7  -3.9  85  -5  -5    1037.9  928.2         
09:56 19.03 З  16 км    ясно  -3.3  -5.0  88  -7  -7    1037.9  927.9         
10:56 19.03 Ю  16 км    ясно  -3.9  -5.0  92  -7  -7    1038.0  928.2  -3.9  +2.2     
11:56 19.03 С  16 км    ясно  -3.9  -5.0  92  -7  -7    1038.0  928.2         
12:56 19.03 С  16 км    ясно  -4.4  -6.1  88  -8  -8    1038.3  928.2         
13:56 19.03   16 км    ясно  -1.1  -2.8  88  -2  -2    1038.6  928.5         
14:56 19.03   16 км    ясно  +2.2  0.0  85  +1  +2    1038.7  928.8         
15:56 19.03 С  16 км    ясно  +2.2  -1.7  75  -0  +3    1038.4  928.5         
16:56 19.03 С  16 км    ясно  +5.0  -1.1  65  +2  +7    1038.0  927.9  -5.0  +5.0     
17:56 19.03 нст  16 км    ясно  +7.2  0.0  60  +6  +15  опасность
простуды 
1037.3  927.6         
18:56 19.03 С  16 км    ясно  +8.9  +0.6  56  +6  +14    1036.8  927.0         
19:56 19.03 С  16 км    ясно  +11.1  +1.1  50  +9  +15    1036.0  926.0         
20:56 19.03 С  16 км    ясно  +13.3  +1.7  45  +12  +18    1035.2  925.4         
21:56 19.03 Ю  16 км    ясно  +16.1  +0.6  35  +15  +16    1034.4  924.8         
22:12 19.03 Ю  16 км    ясно  +16.0  +1.0  36  +14  +15      924.5         
22:44 19.03 Ю  16 км    2/2 30 м  +15.0  -1.0  33  +13  +14      924.2         
22:56 19.03 Ю  16 км    2/2 30 м  +15.0  -1.1  33  +13  +13    1033.8  923.9  +5.0  +16.1     
23:56 19.03 Ю  16 км    ясно  +13.9  -1.7  34  +12  +12    1033.4  923.6         
00:56 20.03 Ю  16 км    ясно  +11.1  -2.2  39  +8  +8    1033.3  923.6         
01:56 20.03 ЮВ  4
{8} 
16 км    ясно  +11.1  -3.3  36  +9  +9    1033.9  924.2         
02:56 20.03   16 км    ясно  +5.6  -1.7  59  +5  +5    1034.1  924.5         
03:56 20.03 С  16 км    ясно  +2.2  -2.8  69  -2  -2    1034.2  924.2         
04:56 20.03 С  16 км    ясно  +2.2  -2.8  69  -1  -1    1034.2  924.5  +1.1  +15.0     
05:56 20.03   16 км    ясно  +2.8  -2.2  70  +2  +2    1034.1  924.2         
06:56 20.03   16 км    ясно  0.0  -2.8  81  -1  -1    1033.9  924.2         
07:56 20.03 СЗ  16 км    ясно  -1.1  -3.3  85  -6  -6    1033.9  924.2         
08:56 20.03 СЗ  16 км    ясно  -0.6  -3.3  82  -4  -4    1033.6  923.9         
09:56 20.03   16 км    ясно  -0.6  -3.3  82  -2  -2    1033.2  923.3         
10:56 20.03   16 км    ясно  -1.7  -3.9  85  -3  -3    1032.9  923.3  -2.2  +2.8     
11:56 20.03 С  16 км    ясно  -3.9  -5.0  92  -7  -7    1032.8  923.0         
12:56 20.03   16 км    ясно  -4.4  -5.6  91  -6  -6    1032.9  923.0         

 

Местоположение метеостанции La Grande/Union County Airport: широта 45.2833 долгота -118.0000 высота над уровнем моря 828 м.

В архиве по умолчанию представлена погода в Лаграндже за последние 1-2 суток. Обновление информации о фактической погоде в базе происходит ежечасно! Архивные данные за месяц целиком и за предыдущие месяцы Вы можете получить, выбрав интересующий диапазон дат из раскрывающегося списка и нажав кнопку "Ввод!".

Внимание! Архив погоды МЕТАР в базе сайта хранится не более 60 дней. Нет смысла пытаться выбрать более раннюю дату.

Внимание! Время в таблицах - всемирное. Для получения местного времени необходимо прибавить поправку, которая в Лаграндже равна -8 ч.

Ветер - указаны скорость ветра в м/с и направление, откуда дует ветер: С - северный, СВ - северо-восточный, В - восточный, ЮВ - юго-восточный, Ю - южный, ЮЗ - юго-западный, З - западный, СЗ - северо-западный.
Видимость - горизонтальная дальность видимости в метрах или километрах. При видимости от 1 до 10 км при отсутствии осадков обычно наблюдается дымка, при ухудшении видимости до 1 км и менее - туман. В сухую погоду видимость может ухудшаться дымом, пылью или мглою.
Атмосферные явления - указаны явления, наблюдавшиеся в указанный момент времени.
Облачность - указаны через наклонную черту верхняя и нижняя облачность в баллах и высота нижней границы облаков в метрах. Внимание: облачность, как и прочие метеорологические величины в США измеряются автоматическими метеостанциями. Указанные значения в баллах носят условный характер и показывают процент времени, в течение которого, в среднем, лазерный луч высотомера отражался от облаков обратно.
T - Температура воздуха - температура, измеренная на высоте 2 м над землей.
Td - Температура точки росы - температура, при понижении до которой содержащийся в воздухе водяной пар достигнет насыщения.
f - Относительная влажность воздуха - влажноcть воздуха, измеренная на высоте 2 м над землей.
Te - Эффективная температура - температура, которую ощущает одетый по сезону человек в тени. Характеристика душности погоды. При расчете учитывается влияние влажности воздуха и скорости ветра на теплоощущения человека.
Tes - Эффективная температура на солнце - температура, которую ощущает человек, с поправкой на солнечный нагрев. Характеристика знойности погоды. Зависит от высоты солнца над горизонтом, облачности и скорости ветра. Ночью, в пасмурную погоду, а также при ветре 12 м/с и более поправка равна нулю.
P - Атмосферное давление - приведенное к уровню моря атмосферное давление.
Po - Атмосферное давление - измеренное на уровне метеостанции атмосферное давление.
Tmin - Минимальная температура - минимум температуры воздуха на высоте 2 м над землей.
Tmax - Максимальная температура - максимум температуры воздуха на высоте 2 м над землей.
R - Количество осадков - Количество выпавших осадков за 3 или 6 часов, мм.
SD - Снежный покров - Высота снежного покрова, см.